Location: Batang Balui
(2.7000°N, 113.7833°E)
Time: 23:36:18
(UTC+00:00)

Cosmos 1937 Rocket - Pass Details

Date: 03 December 2021
Orbit: 746 x 780 km, 74.0° (Epoch: 27 January)

Event Time Altitude Azimuth Distance (km) Brightness Sun altitude
Rises 10:40:33 0° 2° (N) 3,246 6.5 -7.0°
Reaches altitude 10° 10:43:06 10° 10° (N) 2,318 5.7 -7.6°
Maximum altitude 10:47:56 37° 77° (ENE) 1,182 4.0 -8.7°
Drops below altitude 10° 10:52:46 10° 144° (SE) 2,310 5.8 -9.8°
Sets 10:55:17 0° 152° (SSE) 3,233 6.7 -10.4°
